Simultaneous Nadir Overpasses (SNOs) Predictions

Prediction of SNOs between NOAA-20 and LANDSAT-8 Satellite Orbit:

Table of predicted SNOs for the next 14.0 days since TLE Epoch: 9/3/2022
Index Date (NOAA-20) Time (NOAA-20) Lat,Lon (NOAA-20) SZA (NOAA-20 ) Date (LANDSAT-8) Time (LANDSAT-8) Lat,Lon (LANDSAT-8) SZA (LANDSAT-8 ) Distance(km) Time Diff (sec)
1 09/05/2022 07:22:59 70.04, 65.65 63.19 09/05/2022 07:23:41 70.05, 65.59 63.19 2.53 42
2 09/05/2022 08:13:41 -69.96,-126.91 116.89 09/05/2022 08:13:11 -69.94,-126.93 116.91 2.49 30
3 09/07/2022 22:49:25 -70.92, 12.70 114.92 09/07/2022 22:50:32 -70.80, 14.93 115.09 82.18 67
4 09/07/2022 23:39:54 70.01,-178.54 64.15 09/07/2022 23:40:11 70.04,-178.55 64.18 3.21 17
5 09/08/2022 00:30:36 -69.93, -11.10 115.92 09/08/2022 00:29:41 -69.93, -11.07 115.92 1.26 55
6 09/10/2022 15:06:06 -70.10, 129.77 114.76 09/10/2022 15:07:15 -70.13, 129.81 114.75 2.67 69
7 09/10/2022 15:56:50 69.98, -62.74 65.13 09/10/2022 15:56:43 69.96, -62.78 65.11 2.85 7
8 09/10/2022 16:47:28 -69.69, 105.02 115.17 09/10/2022 16:46:15 -69.75, 104.56 115.09 19.31 73
9 09/13/2022 07:23:02 -70.08,-114.42 113.77 09/13/2022 07:23:46 -70.10,-114.36 113.76 3.41 44
10 09/13/2022 08:13:46 69.96, 53.07 66.12 09/13/2022 08:13:14 69.93, 53.05 66.09 3.01 32
11 09/15/2022 22:49:29 70.83,-167.17 68.01 09/15/2022 22:50:37 70.71,-165.22 67.86 72.68 68
12 09/15/2022 23:39:57 -70.00, 1.46 112.83 09/15/2022 23:40:18 -70.00, 1.39 112.83 2.74 21
13 09/16/2022 00:30:41 69.88, 168.94 67.07 09/16/2022 00:29:45 69.89, 168.87 67.08 2.89 56



Historial Predications of SNOs between NOAA-20 and LANDSAT-8
